Location: Huesca
(42.1318°N, 0.4078°W)
Time: 14:51:45
(UTC+02:00)

Vanguard 3 - Visible Passes

Search period start: 19 July 2024 00:00
Search period end: 29 July 2024 00:00
Orbit: 508 x 3230 km, 33.4° (Epoch: 18 July)

Date Brightness Start Highest point End Pass type
(mag) Time Alt. Az. Time Alt. Az. Time Alt. Az.
19 Jul 10.4 00:30:30 21° ESE 00:30:30 21° ESE 00:40:01 10° E visible
19 Jul 9.8 02:34:36 37° SSW 02:40:34 49° SSE 02:58:51 10° E visible
19 Jul 10.0 04:38:42 10° WSW 04:55:36 65° S 05:14:35 10° E visible
20 Jul 9.8 01:19:42 36° SSE 01:20:53 36° SE 01:36:35 10° E visible
20 Jul 9.9 03:23:48 25° SW 03:34:28 60° SSE 03:53:40 10° E visible
20 Jul 10.1 05:32:21 10° W 05:50:09 63° S 06:08:32 10° ESE visible
21 Jul 10.3 00:04:44 21° ESE 00:04:44 21° ESE 00:13:04 10° E visible
21 Jul 9.7 02:08:49 39° SSW 02:14:02 50° SSE 02:31:59 10° E visible
21 Jul 9.9 04:12:55 10° WSW 04:28:47 65° S 04:48:08 10° ESE visible
22 Jul 9.6 00:53:43 36° SSE 00:54:35 36° SE 01:09:34 10° E visible
22 Jul 9.7 02:57:48 25° SW 03:07:48 60° SSE 03:26:53 10° E visible
22 Jul 10.0 05:06:24 10° W 05:23:15 63° S 05:42:11 10° ESE visible
22 Jul 10.1 23:38:27 20° ESE 23:38:27 20° ESE 23:46:04 10° E visible
23 Jul 9.5 01:42:30 37° SSW 01:47:35 50° SSE 02:04:57 10° E visible
23 Jul 9.8 03:47:08 10° WSW 04:02:01 64° S 04:21:27 10° ESE visible
23 Jul 10.2 06:00:21 10° W 06:17:35 55° SSW 06:35:35 10° SE visible
24 Jul 9.4 00:26:45 34° SSE 00:28:22 35° SE 00:42:26 10° E visible
24 Jul 9.6 02:30:44 19° WSW 02:41:14 60° SSE 02:59:55 10° E visible
24 Jul 9.9 04:40:35 10° W 04:56:23 61° S 05:15:35 10° ESE visible
24 Jul 9.7 23:03:39 10° S 23:10:07 20° SE 23:19:02 10° E visible
25 Jul 9.4 01:10:52 10° SW 01:21:17 49° SSE 01:37:48 10° E visible
25 Jul 9.7 03:21:36 10° WSW 03:35:19 63° S 03:54:35 10° ESE visible
25 Jul 10.1 05:34:22 10° W 05:50:38 53° SSW 06:09:02 10° SE visible
25 Jul 9.3 23:54:01 10° SSW 00:02:18 35° SE 00:15:17 10° E visible
26 Jul 9.4 02:03:18 10° WSW 02:14:48 59° SSE 02:32:48 10° E visible
26 Jul 9.8 04:14:54 10° W 04:29:34 60° S 04:48:45 10° ESE visible
26 Jul 9.5 22:38:33 10° S 22:44:14 19° SE 22:52:03 10° E visible
27 Jul 9.2 00:45:42 10° SW 00:55:07 48° SSE 01:10:35 10° E visible
27 Jul 9.5 02:56:10 10° WSW 03:08:43 62° S 03:27:29 10° ESE visible
27 Jul 10.0 05:08:32 10° W 05:23:43 51° SSW 05:42:13 10° SE visible
27 Jul 9.2 23:28:56 10° SSW 23:36:20 34° SE 23:48:08 10° E visible
28 Jul 9.2 01:38:03 10° WSW 01:48:29 58° S 02:05:33 10° E visible
28 Jul 9.7 03:49:21 10° W 04:02:50 58° S 04:21:43 10° ESE visible
28 Jul 10.3 06:02:38 10° W 06:17:36 39° SSW 06:34:35 10° SSE visible
28 Jul 9.4 22:13:31 10° S 22:18:26 18° SE 22:25:08 10° E visible
